EN

Hourly Weather Dziembowo

Today, 29 October, Thursday

Time Temperature Precipitation Wind Pressure Humidity
00:00 +7°C° 0 mm 3 mps 749 mmHg 93%
01:00 +7°C° 0 mm 3 mps 749 mmHg 94%
02:00 +7°C° 0 mm 3 mps 749 mmHg 94%
03:00 +7°C° 0 mm 3 mps 749 mmHg 93%
04:00 +7°C° 0 mm 3 mps 748 mmHg 93%
05:00 +7°C° 0 mm 3 mps 748 mmHg 91%
06:00 +7°C° 0 mm 4 mps 748 mmHg 90%
07:00 +7°C° 0 mm 4 mps 748 mmHg 88%
08:00 +7°C° 0.1 mm 4 mps 748 mmHg 87%
09:00 +8°C° 0.1 mm 5 mps 748 mmHg 85%
10:00 +9°C° 0.1 mm 6 mps 748 mmHg 83%
11:00 +10°C° 0.6 mm 6 mps 748 mmHg 79%
12:00 +10°C° 0.6 mm 6 mps 748 mmHg 75%
13:00 +11°C° 0.6 mm 6 mps 748 mmHg 71%
14:00 +10°C° 0.2 mm 6 mps 748 mmHg 72%
15:00 +9°C° 0.2 mm 5 mps 749 mmHg 73%
16:00 +9°C° 0.2 mm 5 mps 749 mmHg 74%
17:00 +8°C° 0 mm 5 mps 750 mmHg 75%
18:00 +8°C° 0 mm 5 mps 750 mmHg 75%
19:00 +8°C° 0 mm 5 mps 751 mmHg 76%
20:00 +8°C° 0.1 mm 6 mps 751 mmHg 78%
21:00 +7°C° 0.1 mm 6 mps 751 mmHg 80%
22:00 +7°C° 0.1 mm 6 mps 751 mmHg 83%
23:00 +7°C° 0 mm 6 mps 751 mmHg 83%

Tomorrow, 30 October, Friday

Time Temperature Precipitation Wind Pressure Humidity
00:00 +7°C° 0 mm 6 mps 752 mmHg 84%
01:00 +7°C° 0 mm 5 mps 752 mmHg 85%
02:00 +7°C° 0 mm 5 mps 752 mmHg 85%
03:00 +7°C° 0 mm 5 mps 752 mmHg 85%
04:00 +7°C° 0 mm 4 mps 752 mmHg 85%
05:00 +6°C° 0 mm 4 mps 752 mmHg 86%
06:00 +7°C° 0 mm 3 mps 753 mmHg 88%
07:00 +5°C° 0 mm 3 mps 753 mmHg 89%
08:00 +7°C° 0.1 mm 3 mps 752 mmHg 88%
09:00 +7°C° 0.1 mm 3 mps 752 mmHg 88%
10:00 +8°C° 0.1 mm 3 mps 752 mmHg 87%
11:00 +8°C° 0.7 mm 3 mps 752 mmHg 89%
12:00 +8°C° 0.7 mm 3 mps 751 mmHg 91%
13:00 +8°C° 0.7 mm 3 mps 751 mmHg 94%
14:00 +8°C° 0.9 mm 2 mps 751 mmHg 95%
15:00 +8°C° 0.9 mm 2 mps 751 mmHg 96%
16:00 +8°C° 0.9 mm 2 mps 751 mmHg 97%
17:00 +9°C° 1 mm 1 mps 751 mmHg 97%
18:00 +9°C° 1 mm 1 mps 752 mmHg 97%
19:00 +9°C° 1 mm 1 mps 752 mmHg 98%
20:00 +10°C° 1.2 mm 1 mps 752 mmHg 98%
21:00 +10°C° 1.2 mm 1 mps 752 mmHg 98%
22:00 +10°C° 1.2 mm 1 mps 753 mmHg 98%
23:00 +10°C° 0.5 mm 1 mps 753 mmHg 97%

Day after tomorrow, 31 October, Saturday

Time Temperature Precipitation Wind Pressure Humidity
00:00 +10°C° 0.5 mm 1 mps 753 mmHg 97%
01:00 +10°C° 0.5 mm 1 mps 754 mmHg 97%
02:00 +10°C° 0.2 mm 1 mps 754 mmHg 96%
03:00 +10°C° 0.2 mm 1 mps 754 mmHg 96%
04:00 +9°C° 0.2 mm 2 mps 755 mmHg 96%
05:00 +8°C° 0 mm 2 mps 755 mmHg 95%
06:00 +8°C° 0 mm 2 mps 756 mmHg 95%
07:00 +8°C° 0 mm 2 mps 756 mmHg 95%
08:00 +9°C° 0 mm 2 mps 756 mmHg 91%
09:00 +9°C° 0 mm 2 mps 757 mmHg 88%
10:00 +10°C° 0 mm 2 mps 757 mmHg 84%
11:00 +12°C° 0 mm 2 mps 757 mmHg 81%
12:00 +12°C° 0 mm 2 mps 757 mmHg 77%
13:00 +13°C° 0 mm 2 mps 758 mmHg 73%
14:00 +13°C° 0 mm 2 mps 757 mmHg 74%
15:00 +12°C° 0 mm 2 mps 757 mmHg 76%
16:00 +12°C° 0 mm 2 mps 757 mmHg 78%
17:00 +10°C° 0 mm 2 mps 758 mmHg 78%
18:00 +10°C° 0 mm 2 mps 758 mmHg 79%
19:00 +9°C° 0 mm 3 mps 758 mmHg 80%
20:00 +9°C° 0 mm 3 mps 758 mmHg 79%
21:00 +8°C° 0 mm 3 mps 758 mmHg 79%
22:00 +8°C° 0 mm 3 mps 758 mmHg 78%
23:00 +8°C° 0 mm 3 mps 758 mmHg 80%

1 November, Sunday

Time Temperature Precipitation Wind Pressure Humidity
00:00 +7°C° 0 mm 3 mps 758 mmHg 82%
01:00 +7°C° 0 mm 3 mps 758 mmHg 83%
02:00 +7°C° 0 mm 3 mps 758 mmHg 84%
03:00 +5°C° 0 mm 3 mps 757 mmHg 85%
04:00 +5°C° 0 mm 4 mps 757 mmHg 87%
05:00 +5°C° 0 mm 4 mps 757 mmHg 87%
06:00 +5°C° 0 mm 4 mps 757 mmHg 88%
07:00 +5°C° 0 mm 4 mps 756 mmHg 89%
08:00 +6°C° 0 mm 5 mps 756 mmHg 84%
09:00 +7°C° 0 mm 5 mps 756 mmHg 79%
10:00 +9°C° 0 mm 6 mps 756 mmHg 73%
11:00 +9°C° 0 mm 6 mps 755 mmHg 70%
12:00 +10°C° 0 mm 6 mps 755 mmHg 67%
13:00 +11°C° 0 mm 6 mps 754 mmHg 64%
14:00 +10°C° 0 mm 6 mps 754 mmHg 65%
15:00 +10°C° 0 mm 5 mps 754 mmHg 67%
16:00 +9°C° 0 mm 5 mps 753 mmHg 68%
17:00 +9°C° 0 mm 5 mps 753 mmHg 71%
18:00 +8°C° 0 mm 5 mps 753 mmHg 73%
19:00 +8°C° 0 mm 5 mps 753 mmHg 75%
20:00 +8°C° 0 mm 5 mps 753 mmHg 79%
21:00 +8°C° 0 mm 4 mps 753 mmHg 82%
22:00 +8°C° 0 mm 4 mps 753 mmHg 85%
23:00 +8°C° 0 mm 4 mps 753 mmHg 87%

2 November, Monday

Time Temperature Precipitation Wind Pressure Humidity
00:00 +8°C° 0 mm 4 mps 752 mmHg 89%
01:00 +9°C° 0 mm 3 mps 752 mmHg 91%
02:00 +9°C° 0 mm 3 mps 752 mmHg 91%
03:00 +9°C° 0 mm 3 mps 752 mmHg 90%
04:00 +9°C° 0 mm 3 mps 752 mmHg 89%
05:00 +10°C° 0 mm 4 mps 752 mmHg 89%
06:00 +10°C° 0 mm 4 mps 752 mmHg 89%
07:00 +10°C° 0 mm 4 mps 752 mmHg 89%
08:00 +11°C° 0 mm 4 mps 752 mmHg 85%
09:00 +12°C° 0 mm 5 mps 751 mmHg 81%
10:00 +13°C° 0 mm 5 mps 751 mmHg 77%
11:00 +13°C° 0 mm 5 mps 751 mmHg 76%
12:00 +14°C° 0 mm 5 mps 751 mmHg 74%
13:00 +15°C° 0 mm 5 mps 751 mmHg 73%
14:00 +14°C° 0 mm 4 mps 751 mmHg 75%
15:00 +14°C° 0 mm 4 mps 751 mmHg 77%
16:00 +13°C° 0 mm 4 mps 751 mmHg 80%
17:00 +13°C° 0 mm 3 mps 751 mmHg 83%
18:00 +12°C° 0 mm 3 mps 751 mmHg 86%
19:00 +12°C° 0 mm 3 mps 751 mmHg 89%
20:00 +12°C° 0 mm 3 mps 752 mmHg 89%
21:00 +11°C° 0 mm 3 mps 752 mmHg 90%
22:00 +11°C° 0 mm 3 mps 752 mmHg 90%
23:00 +12°C° 0 mm 3 mps 752 mmHg 88%

3 November, Tuesday

Time Temperature Precipitation Wind Pressure Humidity
00:00 +12°C° 0 mm 3 mps 752 mmHg 87%
01:00 +12°C° 0 mm 3 mps 752 mmHg 85%
02:00 +12°C° 0 mm 3 mps 752 mmHg 85%
03:00 +12°C° 0 mm 3 mps 752 mmHg 86%
04:00 +12°C° 0 mm 3 mps 752 mmHg 86%
05:00 +12°C° 0 mm 2 mps 752 mmHg 87%
06:00 +12°C° 0 mm 2 mps 753 mmHg 88%
07:00 +12°C° 0 mm 2 mps 753 mmHg 88%
08:00 +12°C° 0 mm 2 mps 753 mmHg 88%
09:00 +13°C° 0 mm 2 mps 754 mmHg 87%
10:00 +13°C° 0 mm 2 mps 754 mmHg 86%
11:00 +13°C° 0.6 mm 1 mps 754 mmHg 89%
12:00 +12°C° 0.6 mm 1 mps 755 mmHg 91%
13:00 +12°C° 0.6 mm 1 mps 755 mmHg 94%
14:00 +12°C° 0.9 mm 1 mps 755 mmHg 95%
15:00 +12°C° 0.9 mm 1 mps 755 mmHg 96%
16:00 +12°C° 0.9 mm 1 mps 755 mmHg 97%
17:00 +12°C° 1.1 mm 2 mps 756 mmHg 96%
18:00 +10°C° 1.1 mm 2 mps 756 mmHg 96%
19:00 +10°C° 1.1 mm 2 mps 756 mmHg 96%
20:00 +10°C° 0.9 mm 2 mps 757 mmHg 95%
21:00 +10°C° 0.9 mm 2 mps 757 mmHg 95%
22:00 +10°C° 0.9 mm 2 mps 757 mmHg 94%
23:00 +9°C° 0.5 mm 2 mps 758 mmHg 94%
Show more